Location: Olomouc
(49.5830°N, 17.2500°E)
Time: 02:50:11
(UTC+01:00)

ISS - Visible Passes

Search period start: 22 January 2019 00:00
Search period end: 01 February 2019 00:00
Orbit: 404 x 410 km, 51.6° (Epoch: 22 January)

Date Brightness Start Highest point End Pass type
(mag) Time Alt. Az. Time Alt. Az. Time Alt. Az.
23 Jan -2.0 18:39:19 10° SSW 18:41:05 23° S 18:41:05 23° S visible
24 Jan -1.9 17:48:42 10° S 17:51:02 18° SE 17:52:04 16° ESE visible
24 Jan -1.0 19:23:52 10° WSW 19:24:48 18° WSW 19:24:48 18° WSW visible
25 Jan -3.4 18:32:38 10° SW 18:35:43 51° SSE 18:35:43 51° SSE visible
26 Jan -2.8 17:41:34 10° SW 17:44:35 34° SSE 17:46:33 18° E visible
26 Jan -1.6 19:17:41 10° W 19:19:16 26° W 19:19:16 26° W visible
27 Jan -3.9 18:26:17 10° WSW 18:29:35 87° SSE 18:30:03 63° ENE visible
28 Jan -3.6 17:34:57 10° WSW 17:38:13 62° SSE 17:40:47 15° ENE visible
28 Jan -2.0 19:11:32 10° W 19:13:30 32° WNW 19:13:30 32° WNW visible
29 Jan -3.7 18:20:04 10° W 18:23:21 67° N 18:24:13 44° NE visible
29 Jan -0.2 19:56:48 10° WNW 19:56:55 11° WNW 19:56:55 11° WNW visible
30 Jan -3.8 17:28:35 10° WSW 17:31:54 83° NNW 17:34:53 12° ENE visible
30 Jan -2.4 19:05:21 10° WNW 19:07:36 38° WNW 19:07:36 38° WNW visible
31 Jan -3.6 18:13:51 10° W 18:17:07 58° N 18:18:17 34° ENE visible
31 Jan -0.5 19:50:30 10° WNW 19:50:59 14° WNW 19:50:59 14° WNW visible
